Precipitable_Water
0.61 0.64 0.67 0.63 0.66 0.66 0.64 0.59 0.59 0.61 0.56 0.60 0.65 0.66 0.66 0.65 0.60 0.48 0.37 0.47 0.56 0.66 0.62 0.47 0.42 0.45 0.47 0.43 0.43 0.39 0.25 0.23 0.26 0.27 0.29 0.37 0.34 0.40 0.42 0.38 0.41 0.44 0.44 0.48 0.54
0.59 0.59 0.63 0.60 0.62 0.66 0.63 0.57 0.59 0.56 0.60 0.63 0.66 0.68 0.70 0.67 0.47 0.40 0.55 0.63 0.65 0.65 0.52 0.44 0.37 0.36 0.33 0.37 0.38 0.32 0.29 0.31 0.38 0.36 0.34 0.37 0.39 0.42 0.41 0.40 0.40 0.42 0.47 0.51 0.54
0.59 0.58 0.61 0.61 0.61 0.65 0.63 0.57 0.57 0.64 0.67 0.69 0.72 0.74 0.73 0.72 0.35 0.40 0.61 0.62 0.66 0.64 0.57 0.54 0.46 0.41 0.33 0.39 0.39 0.37 0.31 0.38 0.38 0.40 0.41 0.40 0.40 0.44 0.39 0.34 0.38 0.37 0.40 0.44 0.46
0.64 0.63 0.60 0.58 0.58 0.63 0.63 0.57 0.62 0.70 0.71 0.70 0.70 0.72 0.68 0.51 0.23 0.47 0.59 0.60 0.62 0.62 0.53 0.47 0.43 0.35 0.32 0.32 0.39 0.32 0.39 0.40 0.40 0.40 0.40 0.37 0.39 0.34 0.33 0.32 0.34 0.34 0.36 0.37 0.37
0.64 0.62 0.63 0.62 0.60 0.64 0.65 0.59 0.66 0.68 0.70 0.72 0.68 0.64 0.48 0.35 0.36 0.52 0.56 0.57 0.57 0.55 0.45 0.43 0.37 0.36 0.31 0.35 0.36 0.33 0.35 0.38 0.39 0.38 0.37 0.37 0.33 0.32 0.31 0.33 0.34 0.35 0.35 0.34 0.34
0.65 0.66 0.67 0.66 0.65 0.67 0.67 0.67 0.70 0.73 0.70 0.67 0.64 0.60 0.41 0.29 0.52 0.52 0.53 0.53 0.51 0.48 0.43 0.42 0.39 0.40 0.36 0.35 0.34 0.37 0.36 0.35 0.36 0.36 0.37 0.33 0.33 0.33 0.30 0.31 0.31 0.31 0.31 0.32 0.32
0.68 0.69 0.69 0.67 0.68 0.67 0.70 0.71 0.71 0.69 0.65 0.63 0.62 0.50 0.36 0.34 0.52 0.52 0.54 0.53 0.54 0.50 0.42 0.45 0.45 0.38 0.38 0.33 0.38 0.36 0.30 0.32 0.33 0.34 0.32 0.35 0.27 0.26 0.28 0.28 0.28 0.28 0.29 0.30 0.31
0.69 0.70 0.70 0.69 0.69 0.71 0.70 0.68 0.66 0.65 0.65 0.65 0.60 0.44 0.29 0.48 0.54 0.50 0.51 0.49 0.52 0.52 0.47 0.43 0.46 0.39 0.37 0.38 0.34 0.31 0.32 0.23 0.30 0.32 0.33 0.31 0.20 0.25 0.27 0.25 0.26 0.26 0.27 0.29 0.31
0.67 0.66 0.65 0.67 0.68 0.68 0.66 0.65 0.68 0.67 0.67 0.65 0.45 0.35 0.28 0.50 0.42 0.46 0.48 0.42 0.46 0.46 0.42 0.38 0.33 0.33 0.36 0.29 0.25 0.27 0.21 0.24 0.25 0.29 0.29 0.27 0.21 0.23 0.26 0.25 0.25 0.26 0.27 0.29 0.31
0.68 0.69 0.69 0.67 0.66 0.67 0.71 0.71 0.66 0.61 0.55 0.55 0.42 0.26 0.33 0.33 0.42 0.43 0.46 0.47 0.42 0.40 0.30 0.30 0.27 0.23 0.26 0.23 0.13 0.15 0.17 0.19 0.18 0.23 0.24 0.21 0.20 0.22 0.24 0.25 0.25 0.26 0.27 0.29 0.31
0.69 0.70 0.71 0.72 0.71 0.73 0.65 0.55 0.41 0.36 0.39 0.33 0.32 0.31 0.34 0.40 0.44 0.40 0.41 0.38 0.40 0.34 0.22 0.26 0.20 0.18 0.21 0.22 0.21 0.20 0.18 0.16 0.19 0.23 0.20 0.18 0.18 0.20 0.23 0.25 0.25 0.26 0.28 0.29 0.30
0.69 0.70 0.70 0.71 0.73 0.73 0.64 0.40 0.42 0.43 0.32 0.40 0.39 0.39 0.41 0.39 0.30 0.35 0.41 0.29 0.30 0.23 0.26 0.23 0.18 0.24 0.24 0.22 0.19 0.17 0.14 0.14 0.18 0.21 0.18 0.18 0.17 0.21 0.24 0.25 0.27 0.27 0.28 0.29 0.30
0.68 0.70 0.71 0.70 0.69 0.63 0.54 0.48 0.66 0.58 0.35 0.37 0.40 0.37 0.38 0.38 0.31 0.32 0.38 0.35 0.28 0.24 0.23 0.20 0.22 0.24 0.21 0.18 0.17 0.16 0.13 0.14 0.14 0.18 0.20 0.18 0.17 0.20 0.24 0.27 0.28 0.29 0.30 0.31 0.30
0.69 0.69 0.71 0.70 0.56 0.58 0.48 0.67 0.74 0.60 0.27 0.29 0.33 0.37 0.38 0.37 0.29 0.41 0.40 0.33 0.28 0.24 0.24 0.22 0.25 0.20 0.19 0.16 0.17 0.11 0.18 0.16 0.16 0.16 0.13 0.21 0.12 0.19 0.23 0.24 0.26 0.27 0.29 0.29 0.30
0.68 0.69 0.71 0.69 0.56 0.49 0.57 0.76 0.73 0.53 0.16 0.32 0.34 0.46 0.40 0.32 0.32 0.33 0.43 0.34 0.24 0.24 0.24 0.20 0.21 0.19 0.16 0.17 0.19 0.14 0.18 0.18 0.20 0.18 0.18 0.18 0.17 0.19 0.23 0.22 0.23 0.26 0.27 0.29 0.29
0.66 0.70 0.72 0.68 0.64 0.64 0.77 0.74 0.52 0.26 0.18 0.29 0.36 0.33 0.31 0.32 0.32 0.34 0.34 0.37 0.34 0.26 0.26 0.24 0.29 0.25 0.21 0.22 0.22 0.20 0.16 0.18 0.20 0.19 0.14 0.18 0.17 0.17 0.20 0.21 0.22 0.25 0.27 0.28 0.27
0.65 0.69 0.67 0.68 0.53 0.75 0.72 0.50 0.28 0.21 0.35 0.29 0.31 0.34 0.32 0.29 0.30 0.31 0.28 0.26 0.23 0.18 0.18 0.23 0.23 0.27 0.26 0.19 0.23 0.18 0.14 0.11 0.10 0.11 0.11 0.19 0.17 0.18 0.22 0.23 0.24 0.25 0.25 0.27 0.27
0.64 0.67 0.71 0.72 0.80 0.75 0.55 0.36 0.22 0.29 0.30 0.38 0.35 0.35 0.30 0.33 0.31 0.30 0.28 0.25 0.30 0.27 0.21 0.17 0.14 0.23 0.27 0.21 0.19 0.19 0.16 0.13 0.10 0.11 0.11 0.18 0.14 0.18 0.24 0.26 0.26 0.26 0.26 0.25 0.25
0.60 0.58 0.59 0.67 0.75 0.63 0.44 0.27 0.26 0.30 0.35 0.34 0.34 0.30 0.31 0.34 0.32 0.30 0.29 0.28 0.31 0.31 0.20 0.18 0.17 0.28 0.27 0.26 0.24 0.19 0.16 0.22 0.15 0.16 0.13 0.15 0.19 0.22 0.24 0.23 0.23 0.23 0.22 0.22 0.24
0.50 0.48 0.53 0.71 0.69 0.52 0.35 0.29 0.33 0.40 0.40 0.38 0.29 0.33 0.28 0.32 0.31 0.30 0.29 0.34 0.31 0.35 0.35 0.25 0.16 0.25 0.26 0.28 0.26 0.22 0.24 0.15 0.15 0.12 0.11 0.13 0.15 0.16 0.19 0.19 0.21 0.20 0.19 0.22 0.25
0.50 0.40 0.57 0.72 0.62 0.42 0.26 0.29 0.35 0.44 0.43 0.36 0.34 0.34 0.35 0.33 0.34 0.31 0.31 0.36 0.37 0.33 0.32 0.27 0.22 0.20 0.24 0.21 0.21 0.22 0.20 0.19 0.18 0.17 0.13 0.12 0.14 0.21 0.19 0.20 0.19 0.19 0.20 0.23 0.25
0.46 0.32 0.64 0.65 0.36 0.38 0.28 0.32 0.38 0.39 0.45 0.42 0.42 0.40 0.38 0.37 0.34 0.34 0.33 0.36 0.39 0.35 0.25 0.27 0.23 0.18 0.20 0.25 0.27 0.27 0.22 0.20 0.15 0.14 0.17 0.16 0.15 0.22 0.20 0.21 0.19 0.18 0.21 0.25 0.27
0.41 0.44 0.66 0.59 0.27 0.30 0.36 0.34 0.37 0.35 0.39 0.39 0.39 0.43 0.44 0.38 0.33 0.38 0.38 0.43 0.37 0.31 0.26 0.26 0.22 0.17 0.18 0.24 0.26 0.23 0.22 0.22 0.20 0.20 0.16 0.15 0.14 0.22 0.20 0.19 0.18 0.19 0.22 0.26 0.26
0.42 0.31 0.45 0.47 0.43 0.32 0.30 0.31 0.30 0.40 0.39 0.42 0.40 0.43 0.39 0.37 0.41 0.37 0.37 0.41 0.38 0.34 0.33 0.31 0.25 0.22 0.19 0.21 0.23 0.22 0.22 0.22 0.21 0.17 0.17 0.16 0.16 0.17 0.17 0.16 0.18 0.21 0.24 0.26 0.26
0.41 0.32 0.41 0.29 0.32 0.33 0.33 0.32 0.29 0.29 0.39 0.42 0.38 0.39 0.37 0.34 0.36 0.35 0.39 0.38 0.35 0.34 0.32 0.30 0.24 0.25 0.25 0.25 0.24 0.23 0.22 0.22 0.20 0.20 0.17 0.17 0.16 0.17 0.17 0.18 0.19 0.22 0.25 0.25 0.25
0.37 0.34 0.41 0.36 0.37 0.32 0.32 0.30 0.30 0.32 0.34 0.34 0.35 0.39 0.38 0.35 0.38 0.35 0.37 0.35 0.31 0.32 0.31 0.32 0.25 0.26 0.24 0.25 0.24 0.23 0.23 0.23 0.22 0.21 0.20 0.18 0.17 0.19 0.20 0.20 0.20 0.23 0.25 0.24 0.24
0.54 0.51 0.40 0.36 0.34 0.30 0.31 0.32 0.33 0.36 0.37 0.40 0.40 0.37 0.36 0.40 0.46 0.44 0.43 0.39 0.35 0.32 0.30 0.29 0.26 0.23 0.21 0.23 0.23 0.21 0.24 0.22 0.23 0.22 0.20 0.16 0.18 0.19 0.18 0.19 0.21 0.23 0.25 0.25 0.23
Wind_Speed
9 9 10 10 10 11 11 11 10 10 10 10 10 11 11 11 10 10 10 8 8 9 9 8 8 6 6 6 7 5 5 5 4 4 5 5 6 10 9 11 12 7 8 10 12
8 9 9 9 9 10 10 10 11 11 11 10 10 10 9 9 10 12 10 10 9 9 9 9 8 7 6 6 5 5 5 5 5 5 7 9 7 6 7 10 11 11 11 12 13
8 9 9 8 8 9 9 10 11 11 10 9 7 7 6 7 9 10 10 10 9 9 9 8 7 7 7 6 6 6 6 6 9 10 10 12 15 7 6 11 10 11 12 14 15
8 8 7 7 9 9 9 10 10 9 9 8 7 6 6 5 7 8 9 9 9 9 8 8 8 7 7 6 6 7 9 6 5 7 8 9 10 15 13 10 10 12 13 15 17
8 7 7 8 9 9 9 9 9 8 8 8 8 8 9 11 10 9 9 9 9 9 9 8 8 7 7 6 8 8 8 11 12 12 12 12 13 11 13 11 11 13 15 17 19
7 7 7 9 10 10 10 10 9 8 8 8 9 10 10 12 9 9 9 9 10 9 9 9 8 8 8 6 6 7 13 11 9 10 7 9 11 8 11 11 13 15 17 19 21
7 8 10 11 11 11 11 10 9 9 10 10 9 9 12 10 9 10 10 10 10 10 9 9 8 7 8 9 10 10 10 7 6 3 2 7 14 10 11 13 15 18 19 22 24
9 10 11 12 12 12 12 12 12 11 10 9 10 10 11 11 11 11 9 10 10 11 11 10 9 9 7 9 7 4 4 4 7 6 8 6 8 10 12 13 17 20 22 24 27
11 12 12 13 14 14 13 11 10 10 9 8 8 9 8 9 10 10 9 8 9 10 11 9 10 8 7 5 4 6 3 5 5 13 8 8 6 10 13 15 19 22 25 28 30
12 13 14 14 15 14 12 11 10 8 8 7 7 8 8 7 8 8 7 7 7 6 6 8 8 7 6 5 3 5 5 6 7 9 9 8 6 11 15 17 21 24 27 30 33
13 13 14 15 15 14 11 9 8 9 12 10 9 9 7 6 7 7 6 4 4 5 5 7 8 6 6 6 5 5 6 6 8 8 11 8 9 12 16 19 23 27 29 33 36
13 13 14 14 13 11 8 8 8 9 10 10 9 8 8 5 6 9 7 5 5 3 3 6 7 6 6 8 5 5 6 9 10 10 13 12 13 15 18 22 25 28 32 35 39
13 13 14 13 12 9 8 11 9 7 7 7 7 6 4 6 6 7 6 5 6 6 6 4 5 7 5 9 7 8 9 11 14 12 14 11 16 18 20 23 26 30 33 37 41
13 13 13 12 10 9 10 8 4 3 4 7 6 7 6 3 5 7 6 4 5 3 4 5 7 7 8 8 9 10 12 15 10 12 15 15 20 19 21 24 29 33 36 39 43
12 12 12 10 10 9 7 4 2 1 4 4 6 5 8 5 2 7 7 7 5 5 4 5 7 9 9 10 11 12 15 14 13 12 15 16 20 22 22 27 32 34 37 41 44
12 12 11 9 8 8 6 2 1 3 2 3 5 6 6 7 5 6 6 7 5 6 7 6 7 8 10 10 11 16 15 15 14 14 17 17 20 20 23 27 32 35 39 42 45
12 11 10 8 8 7 4 2 3 4 1 2 4 5 5 6 6 6 7 9 8 7 8 9 8 10 11 12 13 17 17 16 15 17 18 20 21 24 24 29 33 37 41 44 47
12 11 10 8 8 7 4 3 4 1 1 1 2 4 5 6 6 7 5 7 10 9 7 8 9 11 13 12 13 15 16 13 17 19 22 23 21 24 26 30 35 39 42 45 47
12 10 9 7 7 6 4 4 2 1 1 2 2 3 5 6 5 5 7 7 9 10 8 9 9 9 11 13 14 15 17 17 18 19 22 21 24 27 27 33 37 41 44 45 47
12 11 9 7 7 5 4 3 3 2 2 3 3 4 4 7 6 6 7 8 9 10 9 9 9 9 12 13 14 14 16 18 20 21 24 24 26 26 29 35 39 43 45 45 46
13 10 10 8 7 3 3 3 3 3 3 4 4 4 4 5 6 6 7 8 9 11 10 9 9 11 12 14 14 17 18 19 19 20 22 26 28 26 30 36 41 44 45 45 45
14 10 10 9 6 3 3 3 2 2 4 5 5 5 5 6 6 6 7 8 9 10 9 10 8 12 12 13 15 17 18 19 20 22 23 25 28 26 33 38 41 44 44 44 42
14 11 10 9 7 5 4 2 2 2 4 5 6 6 7 7 7 7 7 9 10 9 8 10 11 14 14 14 17 18 19 20 22 23 24 23 28 30 36 40 41 44 44 43 41
15 12 10 9 7 7 5 2 0 2 3 5 5 6 7 8 9 7 8 9 10 9 9 11 11 11 13 16 18 20 19 21 21 23 25 28 32 33 39 40 43 43 43 41 42
15 13 12 10 8 6 4 3 1 2 4 5 6 7 7 9 9 8 8 10 9 10 11 11 12 14 17 17 18 20 20 21 22 25 25 29 33 36 36 40 42 42 42 41 43
17 14 12 9 9 7 5 4 3 2 4 5 5 7 9 9 10 9 8 9 9 10 12 13 14 16 18 17 20 21 22 22 24 26 30 32 35 32 37 39 41 42 40 41 43
19 15 13 11 10 8 7 6 4 2 5 6 5 7 10 11 10 10 10 10 10 10 11 13 14 17 17 20 23 21 21 21 25 27 29 31 33 35 38 41 41 40 40 42 42
Wind_Direction
118 117 114 108 105 102 99 95 96 98 99 98 92 86 79 72 66 62 56 50 52 50 54 65 66 73 77 74 65 72 67 61 45 42 48 14 47 43 41 48 39 19 10 343 340
125 125 122 114 111 108 103 98 97 98 100 99 94 86 75 68 66 61 53 55 58 53 59 62 62 66 73 59 50 62 68 49 32 59 66 52 42 39 35 31 24 21 9 356 348
130 130 128 121 120 115 108 104 102 98 96 97 90 78 65 66 63 50 48 56 58 57 62 66 68 69 67 62 52 60 61 66 65 88 76 71 51 25 16 23 13 6 356 352 348
136 135 133 130 129 124 116 111 108 98 91 83 76 74 60 68 62 52 50 56 58 58 62 60 60 66 65 65 55 76 49 68 74 67 69 56 55 50 41 31 15 8 359 353 348
138 140 138 138 137 131 124 118 111 98 87 79 76 73 78 72 70 58 57 59 59 58 60 67 65 69 69 75 74 79 79 70 84 79 72 71 51 42 31 16 6 360 354 349 344
138 139 141 142 140 135 129 121 110 96 88 85 80 76 77 69 64 56 62 67 63 64 61 61 67 77 75 71 69 88 101 95 76 75 59 53 25 360 6 359 358 352 349 345 340
136 135 135 136 136 133 129 120 107 97 96 91 82 75 69 71 64 63 70 70 67 66 69 66 67 74 85 77 96 106 94 77 26 7 85 15 16 9 352 353 353 348 342 339 337
134 133 135 133 134 132 127 117 108 98 93 84 80 77 81 69 69 67 73 73 71 71 75 64 74 77 70 94 84 65 40 24 9 327 339 326 343 347 341 347 346 341 338 335 333
135 133 135 134 133 130 125 118 108 99 86 80 77 78 74 68 68 63 69 78 74 74 66 64 64 74 68 77 44 10 359 349 334 351 323 337 333 333 335 338 339 335 333 331 329
134 133 134 134 134 132 126 118 105 97 84 75 69 74 67 66 64 61 62 72 79 65 50 52 56 62 46 26 350 345 344 340 337 338 4 5 327 321 327 332 331 331 330 330 329
133 134 136 137 136 133 128 120 101 82 72 78 79 84 71 57 61 43 40 63 60 51 49 42 54 34 14 355 342 346 342 337 324 319 329 328 318 316 322 327 330 329 329 330 329
137 137 138 140 140 137 128 120 116 110 81 67 70 68 60 59 53 27 39 56 44 43 13 28 32 5 353 352 351 344 337 331 331 323 322 311 315 314 318 323 326 328 329 328 328
139 139 140 140 141 134 122 125 115 101 81 53 51 44 37 51 52 20 36 53 47 41 30 37 351 354 354 0 346 336 336 323 319 325 329 314 312 311 315 318 323 325 326 328 329
142 143 144 144 145 142 134 128 110 87 74 14 21 26 22 58 47 30 28 29 20 23 7 9 351 353 355 351 340 329 334 322 320 316 316 306 315 313 315 320 321 325 327 328 329
149 147 149 149 149 149 149 137 105 85 59 5 22 28 33 66 19 13 19 29 28 6 359 347 352 353 352 336 337 325 329 328 325 317 324 312 317 324 317 320 323 324 326 328 329
152 153 153 151 146 154 153 125 73 65 74 34 30 24 39 37 30 2 11 16 5 9 7 347 337 348 339 334 336 331 335 335 333 326 322 324 319 321 321 323 324 325 327 328 330
153 149 153 154 154 157 152 109 61 83 84 12 22 28 44 14 9 8 14 14 -0 346 346 335 339 333 345 339 336 344 343 333 332 330 324 331 323 326 323 324 326 327 329 329 331
158 157 146 145 145 146 129 78 77 120 59 58 26 27 30 3 3 358 353 355 359 353 347 343 327 338 335 341 332 342 346 343 328 327 325 327 324 330 324 328 329 329 329 331 332
165 160 160 152 144 140 108 69 124 117 85 85 26 16 357 354 357 358 356 344 343 348 344 340 327 331 342 343 339 338 345 336 332 332 329 328 330 329 329 331 332 332 331 332 333
173 167 166 163 152 136 92 96 88 73 50 19 12 344 341 339 346 348 341 333 334 344 336 331 334 333 330 333 346 344 339 337 340 335 330 328 329 330 330 332 332 333 333 334 334
177 174 178 175 165 140 113 91 92 69 36 19 12 2 348 341 345 338 334 331 334 336 342 337 336 329 333 340 334 338 339 342 338 334 331 329 331 331 333 333 333 333 335 335 336
183 182 184 180 178 170 138 121 93 65 29 19 19 10 357 348 345 336 328 334 332 332 336 335 334 327 330 334 333 336 336 338 339 333 332 330 329 332 335 334 333 334 336 336 337
186 186 186 186 184 184 179 128 56 31 13 11 10 3 355 348 339 330 330 330 334 335 333 334 335 335 333 336 336 338 336 339 338 336 328 332 331 330 333 334 336 336 338 338 339
190 190 195 193 196 181 182 193 78 356 4 6 2 358 355 347 342 325 327 328 330 333 339 335 334 327 325 330 333 329 331 332 334 334 332 327 330 331 333 335 336 338 338 339 340
196 198 198 202 206 192 193 201 207 318 339 344 353 348 346 347 338 330 328 328 329 330 333 333 326 329 325 328 328 328 326 329 327 331 330 334 332 332 334 336 337 338 339 340 340
197 196 199 201 195 196 218 223 235 294 324 326 338 338 342 338 330 318 325 321 324 329 330 330 328 332 328 331 331 327 325 328 331 332 329 332 332 334 336 337 338 340 341 341 341
201 201 200 210 207 210 221 222 241 272 320 328 326 337 342 340 339 337 333 332 326 323 327 330 332 335 329 334 333 331 332 332 336 334 335 334 334 337 337 338 339 341 342 341 342